Wind_Speed
42 41 40 38 36 38 36 38 38 33 35 34 36 37 38 35 35 36 31 30 29 25 24 27 25 23 22 18 15 19 18 17 19 18 18 17 18 20 23 23 25 31 31 32 34 34 33
46 43 42 43 42 35 34 35 34 30 35 36 36 34 33 27 30 29 30 30 29 27 25 26 25 23 22 20 18 18 21 19 18 19 21 20 19 22 24 24 27 29 31 33 34 32 33
41 42 45 38 41 39 35 35 33 35 33 33 32 33 28 25 27 31 29 27 29 27 27 25 25 25 24 18 21 22 20 20 22 24 23 20 19 20 23 25 26 31 36 35 34 36 36
45 40 45 43 43 40 39 35 34 36 35 31 32 32 28 26 27 26 21 24 28 27 26 26 25 25 24 24 23 20 24 25 25 24 21 19 20 23 25 26 29 30 32 37 26 17 8
55 55 54 50 46 43 42 38 38 34 34 28 29 28 28 31 32 27 26 26 24 26 27 27 25 24 24 25 23 24 24 25 26 20 19 20 23 22 22 23 26 27 33 38 39 29 29
56 56 56 58 57 54 52 51 48 36 35 37 30 33 37 36 34 28 26 23 24 26 27 25 25 22 20 20 16 16 19 23 19 20 22 22 25 27 25 21 19 18 21 31 38 31 34
58 57 56 54 51 52 50 46 41 40 37 35 32 33 33 32 30 30 23 22 23 26 27 23 20 13 12 17 20 21 24 25 21 23 23 23 22 25 19 18 20 23 28 34 38 36 37
56 56 56 53 54 49 44 44 42 40 39 38 35 28 30 26 31 29 24 23 24 26 25 21 22 23 23 26 28 25 26 26 26 27 22 19 24 21 15 11 14 19 26 32 41 34 31
53 54 55 55 54 51 48 45 39 41 37 31 35 27 30 25 30 29 23 22 21 20 22 19 24 27 23 22 20 22 25 32 27 17 17 19 19 13 21 24 25 26 24 30 34 43 44
51 52 53 53 51 49 45 44 44 41 42 33 29 28 28 28 29 26 21 21 17 17 13 14 17 9 7 5 7 9 14 17 17 18 20 19 11 10 14 19 18 33 27 30 36 33 33
48 47 49 50 49 47 44 49 42 46 46 37 34 30 29 27 28 24 20 18 15 10 4 4 10 11 10 9 10 11 15 15 16 18 19 20 30 34 35 33 29 38 31 31 33 35 39
46 46 47 48 46 45 43 41 38 48 45 39 38 33 33 30 27 22 21 16 12 6 7 11 10 13 11 12 12 15 16 18 20 25 29 29 25 21 19 22 21 26 28 30 33 33 22
44 45 46 47 45 42 40 38 43 44 36 39 45 35 31 28 26 25 20 16 11 8 5 9 13 15 15 12 15 19 22 22 19 20 22 32 29 27 25 27 25 21 10 7 5 10 14
43 45 47 46 40 38 37 38 46 39 40 28 30 32 31 30 26 23 20 17 11 7 16 9 8 12 13 15 15 18 21 22 18 19 20 15 13 8 10 14 23 27 24 10 7 5 7
45 46 47 45 40 41 39 41 39 36 44 31 33 33 32 30 26 22 21 17 9 13 13 10 10 6 8 8 9 13 13 5 1 5 10 14 9 11 19 24 21 19 22 24 24 27 13
46 45 45 42 45 41 38 38 46 34 39 34 34 33 30 26 23 22 22 17 12 16 15 10 6 8 6 8 8 8 5 6 11 11 7 10 28 24 21 12 17 25 21 9 13 3 4
45 42 43 43 42 41 38 49 42 36 41 37 31 31 31 25 21 22 19 15 16 15 12 10 10 8 7 10 9 11 5 13 7 8 15 21 17 23 25 22 15 10 13 17 18 11 2
44 42 43 41 43 52 42 53 44 39 39 36 36 26 26 23 22 19 18 16 15 10 13 10 8 10 11 13 14 12 12 12 8 13 16 16 13 21 31 22 19 24 25 18 8 5 11
39 39 39 46 47 52 50 39 38 41 40 36 32 27 27 21 21 21 17 14 14 13 12 8 8 12 15 17 10 10 17 14 16 19 5 12 6 11 17 1 10 7 7 13 20 17 11
48 48 57 52 48 33 29 29 38 36 37 36 30 22 24 25 21 20 21 18 14 11 8 8 8 9 11 13 12 12 21 16 16 15 19 17 21 21 17 24 21 27 25 22 15 9 9
48 39 33 30 29 30 40 42 38 41 37 32 28 24 27 25 24 22 18 17 14 8 5 3 3 5 9 9 13 11 10 12 15 17 15 13 21 21 28 30 20 24 12 7 13 13 6
31 30 29 27 29 39 42 40 37 36 32 30 33 24 25 16 21 22 20 18 13 8 6 1 2 1 5 6 9 13 13 14 9 3 6 13 23 23 33 18 2 17 9 19 21 19 16
24 25 26 29 39 43 37 37 35 30 34 35 27 17 17 20 22 23 21 17 12 9 5 1 1 2 4 7 12 13 13 12 13 16 19 26 16 13 9 26 10 19 20 19 18 13 8
25 28 37 41 37 39 36 33 34 33 31 27 19 15 17 22 22 22 16 13 10 5 2 0 4 7 7 13 15 9 5 5 10 12 15 21 20 11 14 11 4 9 4 9 19 19 13
30 33 40 40 35 32 31 30 29 27 24 19 15 14 18 25 24 21 16 11 5 2 2 1 5 7 7 9 5 3 1 3 4 6 14 6 6 3 6 14 14 2 2 6 12 18 18
35 34 34 33 31 31 31 27 26 23 21 19 18 17 17 27 22 20 17 9 3 3 2 1 3 3 3 6 8 6 4 4 4 6 12 14 3 3 6 5 3 6 3 8 10 14 14
33 32 32 33 32 26 24 24 23 21 19 17 19 20 23 22 19 14 12 8 5 5 5 6 4 1 3 6 6 6 7 6 6 7 12 10 15 17 12 7 5 6 7 9 2 3 10
34 32 27 25 24 24 25 23 20 18 17 18 18 22 22 19 15 12 9 6 8 7 5 4 2 5 3 4 5 4 7 7 5 12 8 10 5 6 5 5 4 4 13 3 11 9 11
28 28 23 24 25 25 23 21 19 18 16 17 17 19 17 18 11 12 11 8 8 7 6 9 9 10 5 4 5 5 8 5 10 4 9 4 13 2 5 8 9 13 14 13 12 11 11
Wind_Direction
268 270 270 270 268 274 275 280 278 281 285 290 295 292 289 288 287 288 284 283 286 282 278 275 270 267 269 264 261 257 253 244 253 257 254 256 255 255 253 253 250 254 262 262 265 267 266
266 269 268 267 269 271 276 278 275 284 288 283 288 288 287 290 286 292 282 280 282 278 271 269 268 266 266 269 264 256 254 258 259 256 256 258 261 262 261 257 259 265 264 267 269 267 263
266 265 266 270 272 270 272 277 270 277 282 286 290 276 276 286 285 289 280 281 277 268 266 264 265 265 264 267 263 259 258 255 256 252 257 262 254 255 259 266 269 269 276 273 272 278 279
259 261 262 266 270 278 269 260 275 279 279 284 287 273 273 292 281 284 271 272 269 265 262 262 263 268 267 266 266 263 255 250 250 255 259 255 264 264 262 265 266 269 271 277 270 282 281
255 262 264 264 268 269 265 269 266 272 271 272 275 269 279 283 289 278 273 265 255 255 256 258 262 268 272 266 261 255 256 257 260 260 250 256 265 272 270 270 274 272 273 278 286 288 279
259 258 259 261 261 265 262 268 272 263 266 270 267 267 283 282 280 275 262 252 249 250 253 258 263 267 256 256 256 258 253 247 256 258 260 274 278 272 268 263 263 277 277 279 284 287 291
259 258 258 257 261 260 258 257 254 256 266 258 263 266 275 285 279 270 247 246 249 256 252 256 255 248 251 256 259 254 259 260 252 253 266 275 261 256 275 281 288 285 285 287 286 292 303
260 259 259 255 256 254 253 253 255 251 255 261 267 262 274 278 273 261 244 242 250 259 262 262 264 262 261 262 261 262 257 258 260 266 267 259 267 273 274 266 283 293 293 290 294 302 309
259 257 256 256 255 256 253 253 245 252 261 264 261 272 280 269 259 251 232 241 252 263 270 265 272 273 264 257 255 253 247 248 252 240 247 258 259 257 278 281 283 282 285 295 296 302 293
258 258 256 254 253 254 253 245 248 251 261 262 263 263 271 258 243 234 229 238 247 262 280 268 245 244 223 217 200 190 216 229 230 244 256 269 257 266 267 269 277 278 282 287 292 298 292
259 257 255 253 252 251 248 245 253 249 262 260 270 258 264 245 235 222 227 236 239 253 299 212 192 203 209 220 200 212 232 237 251 264 277 272 284 288 286 284 281 278 282 277 282 284 290
257 253 252 250 249 248 246 246 252 252 256 260 266 255 254 216 216 215 225 231 236 214 240 193 205 195 213 222 234 234 235 255 275 280 277 281 279 287 289 290 283 277 276 275 274 281 268
253 249 247 246 242 242 244 239 246 259 255 261 260 233 210 209 210 217 216 221 225 208 235 217 211 220 223 232 256 268 276 282 299 306 300 298 290 286 293 293 288 270 274 285 279 248 262
247 243 243 240 240 239 240 240 247 246 251 255 259 219 199 204 212 213 214 208 216 235 225 228 221 224 254 263 271 274 285 293 282 285 303 307 306 283 269 270 292 284 285 241 266 244 291
240 239 238 234 231 236 232 241 231 253 245 233 222 196 194 205 206 207 212 208 224 230 242 247 275 270 233 250 286 301 317 319 169 295 316 308 270 263 273 282 270 271 244 267 243 267 280
234 236 235 228 226 226 236 233 234 239 241 206 193 188 200 203 203 206 213 214 221 241 243 261 287 269 245 289 310 317 316 255 314 289 284 281 302 300 311 282 259 253 261 257 210 237 242
231 226 226 220 218 231 226 237 234 233 223 187 186 189 197 202 202 207 201 209 223 233 248 271 266 249 268 303 297 311 263 303 314 288 284 296 292 288 294 284 290 261 257 225 243 236 244
213 216 213 211 217 231 225 232 221 211 175 177 184 183 191 197 189 195 219 222 224 235 251 248 251 261 273 286 289 289 276 286 294 316 292 292 285 286 293 307 267 247 258 270 221 204 222
203 207 206 214 221 222 209 200 199 183 164 180 179 189 189 181 198 209 204 196 211 223 231 243 257 277 273 278 288 278 286 283 279 284 270 303 287 317 321 159 38 3 297 294 256 254 260
202 204 209 208 196 187 196 202 164 168 175 177 181 176 187 200 209 211 199 192 200 200 241 262 272 272 284 284 276 272 282 285 279 275 275 272 274 260 253 278 297 300 304 308 253 222 135
171 169 172 178 185 184 171 159 167 169 178 176 182 187 200 205 201 193 191 194 192 206 220 188 267 282 285 293 305 294 296 288 285 280 261 254 262 272 277 281 294 300 325 68 159 152 141
177 178 180 183 186 179 160 161 168 171 175 184 192 200 200 190 192 183 189 186 194 188 166 71 30 260 267 284 298 299 296 293 306 287 290 275 283 289 286 261 141 71 61 96 92 83 88
170 175 177 177 169 155 160 164 166 175 185 195 205 194 182 177 178 181 182 178 184 169 167 96 47 245 277 303 287 293 280 275 276 280 286 292 280 312 76 132 106 47 47 66 73 88 118
166 170 172 156 156 162 159 165 174 186 196 198 199 195 187 177 170 171 172 178 183 180 189 26 332 309 315 317 314 297 277 278 275 290 275 272 280 300 144 135 57 128 343 29 57 64 67
165 162 153 150 147 157 169 177 185 186 186 185 180 189 195 175 165 168 172 186 194 219 260 291 305 320 320 352 15 355 331 303 321 335 18 26 283 282 135 76 123 251 39 107 75 49 55
143 145 148 153 161 164 173 178 178 177 178 179 178 186 186 175 178 184 183 191 178 227 171 121 9 6 6 54 47 356 2 7 358 13 355 54 111 148 110 87 94 341 169 143 87 44 51
150 155 157 161 165 175 170 175 174 172 173 178 180 179 185 186 187 184 185 183 174 145 133 140 40 44 108 118 58 27 25 8 12 19 1 37 56 72 85 102 102 60 136 169 15 74 71
157 157 157 167 167 166 171 167 165 169 173 176 178 180 182 187 184 188 183 184 160 146 109 113 71 43 75 89 77 54 32 38 20 21 24 35 40 27 59 91 93 74 156 157 127 104 86
154 159 165 166 165 165 162 162 167 166 162 168 168 175 186 196 189 190 186 169 154 148 130 97 85 60 77 103 128 91 65 65 46 40 36 30 56 67 79 103 95 91 117 128 121 107 102
Height
3095 3096 3097 3097 3097 3099 3099 3099 3099 3098 3096 3095 3095 3095 3094 3093 3091 3089 3088 3088 3087 3084 3082 3083 3084 3084 3084 3086 3086 3083 3083 3083 3083 3082 3081 3081 3082 3080 3078 3077 3077 3073 3074 3075 3075 3075 3075
3085 3087 3088 3089 3088 3090 3092 3091 3092 3091 3090 3089 3089 3089 3087 3086 3085 3083 3082 3082 3081 3079 3077 3078 3078 3078 3079 3082 3078 3079 3079 3079 3079 3077 3076 3076 3076 3074 3073 3073 3072 3071 3069 3068 3068 3070 3069
3075 3077 3079 3079 3080 3081 3083 3084 3084 3084 3083 3083 3081 3082 3081 3078 3078 3077 3075 3075 3075 3073 3072 3072 3073 3072 3074 3078 3073 3074 3075 3074 3073 3071 3072 3072 3072 3071 3068 3069 3069 3066 3062 3062 3065 3065 3064
3066 3064 3068 3070 3070 3071 3074 3075 3077 3077 3077 3077 3076 3075 3074 3073 3070 3068 3068 3068 3069 3069 3068 3068 3067 3068 3068 3068 3068 3069 3068 3068 3068 3067 3068 3068 3067 3065 3065 3065 3066 3064 3061 3056 3059 3061 3062
3054 3057 3058 3060 3060 3061 3065 3065 3068 3069 3070 3069 3069 3068 3067 3066 3064 3062 3063 3062 3062 3064 3063 3063 3063 3064 3064 3062 3063 3061 3063 3064 3062 3062 3064 3064 3062 3062 3063 3061 3059 3060 3054 3052 3055 3056 3057
3040 3043 3046 3047 3049 3051 3054 3056 3059 3061 3061 3061 3061 3062 3061 3059 3057 3055 3057 3057 3057 3058 3058 3058 3057 3062 3061 3058 3057 3056 3058 3058 3059 3058 3059 3060 3058 3055 3055 3057 3054 3055 3054 3050 3047 3051 3051
3026 3028 3032 3034 3038 3038 3042 3044 3047 3052 3053 3052 3052 3054 3054 3053 3051 3050 3051 3054 3055 3054 3053 3054 3053 3054 3054 3054 3052 3053 3052 3054 3054 3055 3054 3054 3053 3050 3052 3052 3052 3051 3050 3044 3041 3044 3041
3011 3014 3017 3021 3023 3027 3030 3033 3035 3040 3044 3043 3044 3043 3045 3045 3045 3044 3047 3049 3049 3049 3047 3049 3048 3048 3049 3048 3046 3048 3047 3048 3049 3048 3049 3048 3046 3049 3049 3049 3048 3047 3045 3040 3031 3037 3037
2996 3000 3003 3006 3010 3014 3018 3022 3025 3029 3034 3034 3032 3035 3037 3036 3037 3039 3041 3046 3046 3045 3043 3045 3043 3042 3044 3044 3041 3040 3041 3041 3042 3044 3044 3042 3044 3047 3046 3045 3044 3042 3041 3039 3037 3028 3029
2983 2985 2990 2993 2998 3002 3007 3012 3016 3020 3020 3023 3026 3027 3029 3031 3032 3035 3039 3040 3042 3042 3042 3039 3036 3037 3037 3038 3040 3038 3037 3039 3038 3038 3037 3036 3038 3041 3041 3039 3040 3031 3039 3036 3033 3033 3024
2970 2974 2977 2982 2986 2991 2996 3000 3002 3011 3013 3015 3018 3018 3022 3021 3026 3031 3037 3038 3039 3040 3042 3037 3033 3033 3034 3036 3036 3036 3035 3035 3035 3035 3036 3033 3031 3029 3032 3032 3034 3026 3031 3030 3029 3026 3023
2959 2961 2966 2970 2974 2979 2984 2990 2995 3000 3006 3007 3009 3012 3016 3018 3023 3028 3032 3034 3036 3040 3033 3030 3031 3031 3034 3032 3031 3033 3034 3033 3032 3029 3028 3026 3025 3025 3024 3024 3026 3025 3023 3022 3022 3020 3013
2946 2949 2953 2958 2963 2970 2975 2980 2985 2989 2996 3001 3004 3003 3008 3014 3020 3023 3026 3030 3034 3030 3031 3026 3027 3028 3028 3029 3029 3027 3028 3029 3029 3024 3019 3017 3018 3019 3019 3017 3017 3018 3019 3016 3016 3010 3000
2933 2937 2940 2947 2954 2961 2965 2969 2976 2983 2988 2993 2996 2998 3005 3011 3015 3020 3022 3026 3025 3023 3022 3021 3025 3024 3027 3026 3024 3023 3025 3024 3024 3022 3018 3015 3011 3015 3015 3014 3013 3012 3015 3015 3006 3002 2997
2920 2924 2929 2937 2944 2950 2954 2961 2966 2975 2980 2985 2989 2995 3001 3007 3011 3015 3017 3018 3018 3018 3019 3021 3021 3022 3023 3023 3022 3019 3020 3021 3019 3020 3022 3016 3009 3009 3010 3010 3010 3006 3004 3006 3005 3002 2999
2906 2911 2919 2926 2933 2939 2947 2954 2961 2967 2973 2977 2985 2991 2999 3004 3007 3010 3012 3012 3014 3015 3016 3017 3019 3020 3018 3019 3018 3017 3017 3019 3017 3017 3016 3014 3004 3002 3001 3002 3003 3001 3001 3003 3001 2998 2994
2894 2901 2907 2915 2922 2932 2939 2946 2954 2960 2965 2972 2983 2990 2996 3000 3003 3006 3006 3009 3009 3011 3013 3016 3016 3016 3016 3014 3014 3014 3014 3015 3013 3013 3012 3010 3006 2998 2997 2994 2994 2996 2994 2994 2995 2992 2990
2884 2891 2900 2910 2917 2922 2931 2938 2944 2952 2958 2970 2979 2985 2991 2996 3001 3000 3003 3005 3007 3008 3010 3012 3013 3012 3012 3012 3012 3011 3010 3010 3009 3008 3006 3006 3002 2995 2990 2986 2984 2988 2989 2988 2988 2988 2985
2877 2885 2894 2901 2908 2917 2924 2932 2940 2948 2958 2970 2975 2983 2988 2990 2995 2997 2999 3002 3004 3006 3009 3008 3009 3009 3008 3008 3009 3005 3003 3005 3005 3004 3003 3003 3001 2997 2986 2986 2985 2986 2985 2983 2983 2983 2982
2869 2879 2886 2896 2906 2916 2923 2931 2940 2951 2959 2968 2975 2980 2985 2989 2991 2993 2995 2999 3003 3005 3006 3006 3005 3004 3004 3003 3003 3001 2999 2999 3000 2999 3000 3001 2997 2997 2992 2986 2989 2984 2980 2975 2976 2977 2980
2872 2882 2890 2901 2908 2916 2923 2932 2942 2951 2959 2966 2972 2977 2982 2984 2987 2991 2995 2999 3001 3002 3003 3003 3002 3001 3001 3000 2998 2996 2995 2995 2996 2994 2994 2994 2990 2988 2984 2983 2984 2984 2980 2971 2968 2973 2976
2879 2886 2894 2901 2907 2915 2923 2934 2943 2952 2959 2966 2971 2974 2978 2981 2985 2989 2992 2997 2999 3000 3001 3001 3000 2998 2997 2997 2997 2994 2993 2992 2990 2991 2991 2990 2983 2981 2973 2977 2985 2981 2978 2974 2975 2977 2978
2880 2886 2893 2900 2908 2917 2926 2936 2945 2952 2959 2964 2969 2973 2977 2978 2981 2987 2991 2994 2996 2998 2999 2998 2997 2996 2995 2995 2992 2989 2988 2988 2988 2987 2987 2982 2978 2977 2971 2974 2978 2980 2985 2982 2982 2981 2983
2882 2888 2895 2903 2912 2921 2930 2938 2946 2952 2957 2964 2969 2972 2974 2977 2982 2986 2989 2992 2994 2996 2996 2995 2994 2994 2994 2989 2986 2983 2983 2984 2984 2982 2981 2977 2977 2975 2978 2978 2984 2990 2988 2987 2986 2986 2985
2886 2892 2899 2908 2917 2926 2933 2940 2946 2952 2958 2962 2966 2970 2972 2976 2981 2984 2987 2989 2992 2993 2994 2994 2994 2993 2990 2987 2984 2982 2983 2984 2983 2981 2979 2975 2975 2974 2975 2980 2989 2990 2989 2989 2987 2989 2985
2892 2899 2907 2915 2922 2930 2936 2942 2947 2952 2957 2961 2964 2968 2972 2976 2980 2983 2986 2988 2990 2991 2992 2992 2992 2990 2988 2987 2986 2984 2983 2983 2983 2981 2979 2975 2972 2975 2976 2980 2988 2990 2988 2989 2988 2989 2987
2897 2904 2912 2918 2925 2932 2937 2942 2947 2952 2956 2961 2963 2967 2972 2976 2978 2982 2985 2988 2989 2990 2990 2991 2991 2989 2988 2986 2987 2986 2985 2983 2982 2982 2979 2976 2974 2975 2978 2982 2989 2988 2988 2989 2991 2999 2991
2902 2908 2915 2922 2927 2933 2938 2943 2947 2952 2957 2960 2963 2967 2972 2975 2978 2981 2984 2986 2988 2989 2990 2990 2991 2989 2988 2987 2988 2988 2987 2985 2985 2984 2982 2980 2980 2979 2980 2983 2990 2989 2990 2992 2994 2993 2992
2907 2913 2918 2924 2930 2935 2939 2944 2949 2953 2956 2960 2964 2968 2971 2975 2979 2980 2983 2986 2987 2989 2990 2989 2990 2989 2988 2988 2988 2988 2988 2989 2987 2986 2984 2985 2984 2982 2983 2987 2989 2989 2990 2991 2993 2993 2994